Location: Góry Miechowskie
(50.3599°N, 20.1803°E)
Time: 02:57:38
(UTC+00:00)

Resurs 1-4 Rocket - Pass Details

Date: 20 September 2024
Orbit: 798 x 813 km, 98.8° (Epoch: 14 October)

Event Time Altitude Azimuth Distance (km) Brightness Sun altitude
Rises 00:28:12 0° 18° (NNE) 3,320 6.3 -33.1°
Reaches altitude 10° 00:30:36 10° 23° (NNE) 2,384 5.3 -32.8°
Enters shadow 00:34:43 47° 60° (ENE) 1,059 2.9 -32.4°
